Back to catalog

STARLINK-30478

AliveCommunicationsVLEO
NORAD 57911·PAYLOAD·🇺🇸 United States

Launched Sep 20, 2023 from Cape Canaveral Space Force Station

Loading…

Next Passes (next 24 hours)

TLE

FreshSource: CelesTrak SupGP

Epoch: Sep 14, 2026, 20:58 UTC

1 57911C 23146W   26257.87409722 -.00088432  00000+0 -32025-2 0  2577
2 57911  43.0018 325.5874 0001534 266.1449  28.9722 15.27626938    10

Track STARLINK-30478 in real time with AllMySat

Download on the App Store